Delta Virtual Airport Information Service

Memphis International Airport

ICAO: KMEM Country: United States
Latitude: 35.0424 Longitude: -89.9766
Latest Arrival : DAC3058 (KMIA-KMEM) Latest Departure : FDX1406 (2) (KMEM-KBOS)


WX CaptureLIVE
Data provided by noaa.gov | Fetched at 23:23:03

METAR : KMEM 120354Z 06011KT 10SM FEW010 FEW080 OVC140 14/12 A3012 RMK AO2 SLP198 T01390122 $

TAF : KMEM 120259Z 1203/1306 11012G20KT P6SM SCT080 BKN100 FM120800 04012KT P6SM VCSH SCT025 OVC035 FM121300 04012KT P6SM BKN050 FM122100 03010KT P6SM OVC100


Runway Data for KMEM
Data provided by openaviationdata.com

Runway ID Mag Var Hdg Length Elevation Surface ILS Freq ILS Id ILS Slope
9 0 91° 8936 ft 288 ft Asphalt 109.5 IMEM 3
18L 0 178° 9015 ft 288 ft Concrete 111.15 IEXS 3
18R 0 178° 9335 ft 288 ft Concrete 109.9 IOOI 3
18C 0 178° 11138 ft 288 ft Concrete 111.95 ISDU 3
27 0 271° 8936 ft 288 ft Asphalt 108.7 IJIM 3
36L 0 358° 9335 ft 288 ft Concrete 108.9 IOHN 3
36R 0 358° 9015 ft 288 ft Concrete 111.35 IMYO 3
36C 0 358° 11138 ft 288 ft Concrete 110.5 ITSE 3

Memphis International Airport, United States
Use only for reference purposes



Not for navigational purposes.